User: anonymous   Login
Location: Dürabuch
(48.2640°N, 11.2185°E)
Time: 09:04:02
(UTC+00:00)
Language:

YAOGAN 6 - Orbit

View from above orbital plane
View from above orbital plane
View from above satellite
View from above satellite

Ground track
Ground track

The orbit data is extracted from the following two-line orbital elements,

1 34839U 09021A   24197.86296626  .00024497  00000-0  44421-3 0  9991
2 34839  97.1708 165.1631 0019277  77.5774 282.7633 15.49390933847878
Epoch (UTC): 15 July 2024 20:42:40
Eccentricity: 0.0019277
inclination: 97.1708°
perigee height: 405 km
apogee height: 431 km
right ascension of ascending node: 165.1631°
argument of perigee: 77.5774°
revolutions per day: 15.49390933
mean anomaly at epoch: 282.7633°
orbit number at epoch: 84787

The dashed part of the orbit path shows where the satellite is in the earth's shadow,  

DLR